Waarnemingen

Advertentie
Mijn weer
Herstmonceux, Groot Brittannië (3882): temperatuur & dauwpunt: 26.03.2020 14:00:00 - 01.04.2020 14:00:00 (BST)Herstmonceux, Groot Brittannië (3882): temperatuur -20cm & temperatuur -100cm: 26.03.2020 14:00:00 - 01.04.2020 14:00:00 (BST)Herstmonceux, Groot Brittannië (3882): windsnelheid & windstoten: 26.03.2020 14:00:00 - 01.04.2020 14:00:00 (BST)Herstmonceux, Groot Brittannië (3882): windrichting: 26.03.2020 14:00:00 - 01.04.2020 14:00:00 (BST)Herstmonceux, Groot Brittannië (3882): luchtdruk: 26.03.2020 14:00:00 - 01.04.2020 14:00:00 (BST)Herstmonceux, Groot Brittannië (3882): zicht: 26.03.2020 14:00:00 - 01.04.2020 14:00:00 (BST)Herstmonceux, Groot Brittannië (3882): Zonneschijnduur: 26.03.2020 14:00:00 - 01.04.2020 14:00:00 (BST)Herstmonceux, Groot Brittannië (3882): neerslag: 26.03.2020 14:00:00 - 01.04.2020 14:00:00 (BST)
Datum & Tijd tt [°C] td [°C] tt -20cm [°C] tt -100cm [°C] ff [km/u] ff [kn] fx [km/u] fx [kn] dd ppp [hPa] vv [km] sd [min] rr [mm]
01.04.2020 14:00:00 9,6 1,1 - - 5 3 - - O 1022,4 19 12 0,0
01.04.2020 13:00:00 9,6 0,9 - - 8 4 - - O 1023,0 30 36 0,0
01.04.2020 12:00:00 9,0 0,0 - - 8 4 - - NNO 1023,7 40 60 0,0
01.04.2020 11:00:00 7,8 0,6 - - 11 6 - - NO 1024,3 20 60 0,0
01.04.2020 10:00:00 6,4 1,3 8,2 8,7 11 6 - - NNO 1024,9 30 60 0,0
01.04.2020 09:00:00 4,7 1,7 - - 8 4 - - NO 1025,1 35 30 0,0
01.04.2020 08:00:00 1,7 0,8 - - 8 4 - - NNO 1025,2 19 0 0,0
01.04.2020 07:00:00 0,0 -0,7 - - 8 4 - - NNO 1025,3 18 0 0,0
01.04.2020 06:00:00 0,3 -0,6 - - 5 3 - - NNO 1025,5 17 0 0,0
01.04.2020 05:00:00 0,1 -0,8 - - 4 2 - - NO 1025,7 21 0 0,0
01.04.2020 04:00:00 -0,2 -1,5 - - 4 2 - - NO 1026,2 20 0 0,0
01.04.2020 03:00:00 0,9 -0,6 - - 4 2 - - ONO 1027,0 24 0 0,0
01.04.2020 02:00:00 1,0 -1,0 - - 2 1 - - NO 1027,6 22 0 0,0
01.04.2020 01:00:00 1,4 -1,1 - - 8 4 - - ONO 1028,0 24 - 0,0
01.04.2020 00:00:00 1,6 -0,8 - - 5 3 - - NO 1028,4 28 0 0,0
31.03.2020 23:00:00 1,9 -1,2 - - 5 3 - - ONO 1028,7 24 0 0,0
31.03.2020 22:00:00 2,5 -1,6 - - 5 3 - - ONO 1029,0 35 0 0,0
31.03.2020 21:00:00 3,9 -1,7 - - 11 6 - - ONO 1029,2 40 0 0,0
31.03.2020 20:00:00 4,8 -2,6 - - 9 5 - - ONO 1029,3 45 0 0,0
31.03.2020 19:00:00 6,7 -4,2 - - 13 7 - - O 1029,3 50 42 0,0
31.03.2020 18:00:00 8,6 -3,3 - - 16 9 - - O 1029,2 45 60 0,0
31.03.2020 17:00:00 9,6 -2,3 - - 16 9 - - O 1029,3 40 54 -
31.03.2020 16:00:00 9,5 -1,5 - - 16 9 - - ONO 1029,6 35 42 0,0
31.03.2020 15:00:00 9,0 -0,7 - - 21 11 - - O 1030,1 27 24 0,0
31.03.2020 14:00:00 10,3 -0,7 - - 18 10 - - O 1030,3 29 36 0,0
31.03.2020 13:00:00 9,4 -0,5 - - 16 9 - - ONO 1030,7 50 42 0,0
31.03.2020 12:00:00 10,1 -0,5 - - 16 9 - - O 1031,0 24 48 0,0
31.03.2020 11:00:00 7,3 1,3 - - 18 10 - - O 1031,2 29 24 0,0
31.03.2020 10:00:00 6,7 2,7 8,5 8,7 21 11 - - ONO 1031,4 29 36 0,0
31.03.2020 09:00:00 5,9 3,4 - - 11 6 - - ONO 1031,1 18 30 0,0
31.03.2020 08:00:00 3,6 2,5 - - 11 6 - - NO 1030,9 16 0 0,0
31.03.2020 07:00:00 3,0 2,0 - - 11 6 - - NNO 1030,4 15 0 0,0
31.03.2020 06:00:00 2,9 1,8 - - 13 7 - - NNO 1030,0 17 0 0,0
31.03.2020 05:00:00 3,1 1,9 - - 9 5 - - NNO 1030,2 16 0 0,0
31.03.2020 04:00:00 3,7 2,4 - - 13 7 - - NNO 1030,3 18 0 0,0
31.03.2020 03:00:00 3,9 2,4 - - 9 5 - - NNO 1030,5 18 0 0,0
31.03.2020 02:00:00 4,1 2,0 - - 13 7 - - NNO 1030,4 20 0 0,0
31.03.2020 01:00:00 4,6 2,2 - - 8 4 - - NO 1030,5 20 - 0,0
31.03.2020 00:00:00 5,0 2,6 - - 11 6 - - NO 1030,6 29 0 0,0
30.03.2020 23:00:00 5,1 3,0 - - 11 6 - - NO 1030,5 24 0 0,0
30.03.2020 22:00:00 5,4 4,2 - - 9 5 - - NNO 1030,5 21 0 0,6
30.03.2020 21:00:00 5,9 3,7 - - 5 3 - - NNO 1030,7 10 0 0,0
30.03.2020 20:00:00 6,7 1,5 - - 9 5 - - NO 1030,4 30 0 0,0
30.03.2020 19:00:00 7,5 0,7 - - 9 5 - - NO 1030,2 35 36 0,0
30.03.2020 18:00:00 8,2 0,7 - - 16 9 - - ONO 1030,1 30 42 0,0
30.03.2020 17:00:00 9,2 2,3 - - 9 5 - - ONO 1030,4 35 24 0,0
30.03.2020 16:00:00 9,8 1,1 - - 13 7 - - NO 1030,8 35 30 0,0
30.03.2020 15:00:00 10,0 0,7 - - 13 7 - - NNO 1031,2 45 48 0,0
30.03.2020 14:00:00 8,9 0,8 - - 18 10 - - NNO 1031,8 45 36 0,0
30.03.2020 13:00:00 8,9 0,5 - - 15 8 - - NNO 1032,3 29 60 0,0
30.03.2020 12:00:00 8,3 -0,6 - - 13 7 - - ONO 1033,1 22 54 0,0
30.03.2020 11:00:00 6,6 -0,5 - - 15 8 - - NNO 1034,0 35 42 0,0
30.03.2020 10:00:00 6,0 0,6 8,2 8,7 11 6 - - NO 1034,6 27 54 0,0
30.03.2020 09:00:00 3,2 -0,6 - - 13 7 - - NNO 1034,8 35 18 0,0
30.03.2020 08:00:00 2,4 -0,9 - - 15 8 - - NNO 1035,2 40 0 0,0
30.03.2020 07:00:00 2,7 -1,5 - - 11 6 - - NNO 1035,3 40 0 0,0
30.03.2020 06:00:00 2,9 -2,1 - - 11 6 - - NO 1035,2 50 0 0,0
30.03.2020 05:00:00 2,9 -2,8 - - 9 5 - - NNO 1035,6 45 0 0,0
30.03.2020 04:00:00 3,0 -3,6 - - 11 6 - - NNO 1036,0 40 0 0,0
30.03.2020 03:00:00 2,9 -3,6 - - 13 7 - - NNO 1036,4 45 0 0,0
30.03.2020 02:00:00 3,4 -3,8 - - 13 7 - - NNO 1036,8 50 0 0,0
30.03.2020 01:00:00 3,5 -3,9 - - 13 7 - - NO 1037,1 40 - 0,0
30.03.2020 00:00:00 3,3 -4,0 - - 13 7 - - NO 1037,4 35 0 0,0
29.03.2020 23:00:00 3,7 -4,4 - - 15 8 - - NO 1037,6 40 0 0,0
29.03.2020 22:00:00 3,6 -4,9 - - 15 8 - - NO 1037,8 35 0 0,0
29.03.2020 21:00:00 4,0 -5,1 - - 15 8 - - NO 1037,5 45 0 0,0
29.03.2020 20:00:00 4,4 -5,9 - - 18 10 48 26 NO 1037,1 40 0 0,0
29.03.2020 19:00:00 4,6 -3,9 - - 21 11 46 25 ONO 1036,5 35 12 0,0
29.03.2020 18:00:00 5,0 -6,6 - - 24 13 65 35 ONO 1036,1 40 30 0,0
29.03.2020 17:00:00 6,2 -5,7 - - 24 13 59 32 ONO 1035,7 35 42 0,0
29.03.2020 16:00:00 6,7 -4,9 - - 26 14 52 28 ONO 1035,5 30 24 0,0
29.03.2020 15:00:00 6,7 -3,5 - - 21 11 59 32 NO 1035,3 30 42 0,0
29.03.2020 14:00:00 7,8 -2,2 - - 26 14 57 31 ONO 1035,3 22 48 0,2
29.03.2020 13:00:00 8,2 -1,0 - - 18 10 48 26 NO 1035,1 24 30 0,0
29.03.2020 12:00:00 6,5 -0,7 - - 22 12 57 31 NO 1035,1 30 30 0,0
29.03.2020 11:00:00 6,0 -1,5 - - 26 14 55 30 NNO 1034,5 30 42 0,0
29.03.2020 10:00:00 5,7 -2,9 8,5 8,7 26 14 57 31 NNO 1034,2 15 48 0,0
29.03.2020 09:00:00 4,6 -3,1 - - 28 15 54 29 NNO 1033,9 28 30 0,0
29.03.2020 08:00:00 3,3 -3,2 - - 18 10 - - NNO 1033,7 26 0 0,0
29.03.2020 07:00:00 3,8 -3,2 - - 18 10 - - NNO 1033,3 22 0 0,0
29.03.2020 06:00:00 3,9 -3,3 - - 18 10 - - NNO 1033,2 30 0 0,0
29.03.2020 05:00:00 3,6 -2,7 - - 15 8 - - NNO 1033,1 27 0 0,0
29.03.2020 04:00:00 3,9 -1,8 - - 15 8 - - NO 1033,0 20 0 0,0
29.03.2020 03:00:00 3,8 -0,9 - - 15 8 - - NO 1032,7 22 0 0,0
29.03.2020 02:00:00 4,1 -0,2 - - 16 9 - - NO 1032,7 29 0 0,0
29.03.2020 01:00:00 4,4 0,7 - - 16 9 - - NO 1032,4 25 - 0,0
29.03.2020 00:00:00 4,9 1,4 - - 15 8 - - NO 1031,9 9 0 0,0
28.03.2020 23:00:00 5,3 0,2 - - 15 8 46 25 NO 1031,4 30 0 0,0
28.03.2020 22:00:00 5,6 0,4 - - 16 9 - - NO 1030,9 35 0 0,0
28.03.2020 21:00:00 6,5 0,3 - - 16 9 - - NO 1030,2 28 0 0,0
28.03.2020 20:00:00 6,6 1,5 - - 15 8 - - NO 1029,4 20 0 0,0
28.03.2020 19:00:00 7,9 0,6 - - 22 12 54 29 NO 1028,3 35 18 0,0
28.03.2020 18:00:00 8,0 1,4 - - 24 13 63 34 ONO 1027,6 27 6 0,0
28.03.2020 17:00:00 9,0 1,9 - - 21 11 57 31 ONO 1027,4 35 36 0,0
28.03.2020 16:00:00 8,8 3,1 - - 22 12 52 28 NO 1027,4 26 12 0,0
28.03.2020 15:00:00 9,9 2,5 - - 24 13 61 33 NO 1026,9 30 48 0,0
28.03.2020 14:00:00 10,3 1,4 - - 26 14 61 33 ONO 1026,5 16 60 0,0
28.03.2020 13:00:00 10,3 2,7 - - 26 14 55 30 ONO 1026,1 19 60 0,0
28.03.2020 12:00:00 10,1 3,5 - - 24 13 55 30 NO 1025,7 20 60 0,0
28.03.2020 11:00:00 9,3 3,6 - - 26 14 48 26 ONO 1025,4 13 60 0,0
28.03.2020 10:00:00 7,7 3,9 8,5 8,7 16 9 46 25 NO 1025,0 10 42 0,0
28.03.2020 09:00:00 6,6 3,7 - - 16 9 - - NO 1024,4 9 0 0,0
28.03.2020 08:00:00 5,6 2,9 - - 16 9 - - NNO 1024,1 12 0 0,0
28.03.2020 07:00:00 5,2 2,7 - - 16 9 - - NO 1023,5 13 0 0,0
28.03.2020 06:00:00 5,1 2,7 - - 15 8 - - NO 1023,1 11 0 0,0
28.03.2020 05:00:00 5,0 2,7 - - 13 7 - - NO 1023,0 12 0 0,0
28.03.2020 04:00:00 5,2 2,7 - - 16 9 - - NO 1022,6 12 0 0,0
28.03.2020 03:00:00 5,1 2,2 - - 15 8 - - NO 1022,7 12 0 0,0
28.03.2020 02:00:00 5,3 2,2 - - 15 8 - - NO 1022,8 13 0 0,0
28.03.2020 01:00:00 5,4 1,9 - - 15 8 - - NNO 1023,0 13 - 0,0
28.03.2020 00:00:00 5,8 1,0 - - 15 8 - - NO 1023,0 15 0 0,0
27.03.2020 23:00:00 6,4 0,0 - - 15 8 - - NO 1023,0 21 0 0,0
27.03.2020 22:00:00 7,0 -0,9 - - 13 7 - - NO 1022,7 30 0 0,0
27.03.2020 21:00:00 7,0 -0,3 - - 9 5 - - NO 1022,5 24 0 0,0
27.03.2020 20:00:00 7,8 -0,9 - - 15 8 - - ONO 1022,1 25 0 0,0
27.03.2020 19:00:00 9,1 -1,9 - - 18 10 - - ONO 1021,4 24 36 0,0
27.03.2020 18:00:00 10,5 -3,2 - - 21 11 48 26 NO 1020,8 27 60 0,0
27.03.2020 17:00:00 11,7 -2,0 - - 15 8 - - NO 1020,9 23 60 0,0
27.03.2020 16:00:00 11,9 -1,9 - - 21 11 - - ONO 1020,9 28 60 0,0
27.03.2020 15:00:00 11,9 0,0 - - 18 10 - - NO 1021,4 20 60 0,0
27.03.2020 14:00:00 12,0 1,0 - - 15 8 - - NO 1021,8 15 60 0,0
27.03.2020 13:00:00 11,9 2,1 - - 16 9 - - ONO 1022,0 20 54 0,0
27.03.2020 12:00:00 11,5 2,7 - - 13 7 - - ONO 1022,4 17 60 0,0
27.03.2020 11:00:00 10,2 4,1 - - 13 7 - - NO 1022,4 13 60 0,0
27.03.2020 10:00:00 7,6 4,3 8,2 8,7 11 6 - - NO 1022,5 10 60 0,0
27.03.2020 09:00:00 5,6 4,4 - - 11 6 - - NO 1022,4 6 30 0,0
27.03.2020 08:00:00 3,9 3,4 - - 11 6 - - NO 1022,3 4,0 0 0,0
27.03.2020 07:00:00 3,4 3,1 - - 9 5 - - NO 1022,2 2,9 0 0,0
27.03.2020 06:00:00 3,1 2,6 - - 8 4 - - NO 1022,0 4,1 0 0,0
27.03.2020 05:00:00 3,2 2,6 - - 11 6 - - NNO 1022,1 4,0 0 0,0
27.03.2020 04:00:00 3,4 2,0 - - 11 6 - - NNO 1021,9 6 0 0,0
27.03.2020 03:00:00 3,7 1,8 - - 11 6 - - NNO 1022,0 8 0 0,0
27.03.2020 02:00:00 4,1 1,6 - - 9 5 - - NO 1022,2 10 0 0,0
27.03.2020 01:00:00 4,2 0,8 - - 9 5 - - NNO 1022,3 13 - 0,0
27.03.2020 00:00:00 4,0 0,4 - - 8 4 - - NO 1022,3 15 0 0,0
26.03.2020 23:00:00 4,1 0,0 - - 8 4 - - NO 1022,4 13 0 0,0
26.03.2020 22:00:00 4,6 -0,2 - - 9 5 - - NO 1022,4 12 0 0,0
26.03.2020 21:00:00 4,8 -0,5 - - 8 4 - - ONO 1022,4 17 0 0,0
26.03.2020 20:00:00 5,7 -1,7 - - 11 6 - - ONO 1021,8 25 0 0,0
26.03.2020 19:00:00 7,3 -2,1 - - 13 7 - - ONO 1021,3 25 36 0,0
26.03.2020 18:00:00 8,7 -2,4 - - 15 8 - - ONO 1021,3 26 60 0,0
26.03.2020 17:00:00 10,2 -2,9 - - 13 7 - - ONO 1021,3 35 60 0,0
26.03.2020 16:00:00 10,7 -3,4 - - 15 8 - - NO 1021,2 26 60 0,0
26.03.2020 15:00:00 10,8 -5,5 - - 21 11 - - ONO 1021,1 30 60 0,0
26.03.2020 14:00:00 - - - - - - - - - - - - -

tt = temperatuur
td = dauwpunt
tt -20cm = temperatuur -20cm
tt -100cm = temperatuur -100cm
ff = windsnelheid
fx = windstoten
dd = windrichting
ppp = luchtdruk
vv = zicht
sd = Zonneschijnduur
rr = neerslag

Weerstations in de omgeving